sat.trackr.live / text

‹ back to catalog

STARLINK-34979

NORAD 65254 · 2025-179V

PAYLOAD ACTIVE UNKNOWN

§ Identity

Operator
Country
US
Launch date
2025-08-18
Launch site
AFWTR
Launch vehicle
Mass (kg)
RCS (m²)

Purposes: comms

External: N2YO · Heavens-Above · Gunter

§ Orbital elements

Epoch: 2026-09-20T14:45:23.226624Z

Period
93.91 min
Inclination
97.2848°
Eccentricity
0.0000771
Mean motion
15.33451639 rev/d
Perigee alt
465.0 km
Apogee alt
466.1 km
Semi-major
6,843.7 km
B*
5.2286e-4
RAAN
302.9780°
Arg perigee
99.0134°
Mean anomaly
261.1196°
Rev number
6,132

§ Raw data

STARLINK-349791 65254U 25179V   26263.61485216  .00016846  00000+0  52286-3 0  99982 65254  97.2848 302.9780 0000771  99.0134 261.1196 15.33451639 61320

JSON: /api/v1/satellites/65254 · /tle

For live sub-satellite position, see the globe view (requires WebGL).

§ Visibility from observer

Set your observer location to see the next 7 days of passes ≥ 10°. The values pass through the URL so the page stays shareable.

No JS? Fill the form by hand. The geolocation button needs JavaScript.